Springfield, IL

12:00 AM CST on December 10, 2019 (GMT -0600)
Capital

Weather History for KSPI - October, 2019

Change the Weather History Date:

Saturday, October 26, 2019

  Actual Average Record
Temperature  
Mean Temperature 46 °F 52 °F  
Max Temperature 49 °F 62 °F 85 °F (1963)
Min Temperature 42 °F 41 °F 22 °F (1962)
Degree Days  
Heating Degree Days 19 13  
Month to date heating degree days 265 256  
Since 1 July heating degree days 266 337  
Cooling Degree Days 0 0  
Month to date cooling degree days 32 19  
Year to date cooling degree days 1309 1118  
Moisture  
Dew Point 43 °F    
Average Humidity 88    
Maximum Humidity 100    
Minimum Humidity 76    
Precipitation  
Precipitation 2.00 in 0.10 in 2.00 in (2019)
Month to date precipitation 3.04 2.63  
Year to date precipitation 43.59 31.18  
Snow  
Snow 0.00 in 0.00 in T in (1980)
Month to date snowfall 0.0 0.0  
Since 1 July snowfall 0.0 0.0  
Since 1 September snowfall 0.0 0.0  
Snow Depth 0.00 in    
Sea Level Pressure  
Sea Level Pressure 29.73 in    
Wind  
Wind Speed 13 mph (North)    
Max Wind Speed 24 mph    
Max Gust Speed 34 mph    
Visibility 4 miles    
Events Rain    
T = Trace of Precipitation, MM = Missing Value Source: NWS Daily Summary

Daily Weather History Graph

Daily Weather History Graph

Search for Another Location

Airport or City:

Astronomy

Oct. 26, 2019 Rise Set
Actual Time 7:20 AM CDT 6:04 PM CDT
Civil Twilight 6:52 AM CDT 6:31 PM CDT
Nautical Twilight 6:21 AM CDT 7:03 PM CDT
Astronomical Twilight 5:49 AM CDT 7:34 PM CDT
Moon 5:16 AM CDT (10/26) 5:39 PM CDT (10/26)
Length of Visible Light 11h 38m
Length of Day
10h 43m
Waning Crescent, 3% of the Moon is Illuminated
Oct 26
Waning Crescent
Oct 27
New
Nov 4
First Quarter
Nov 12
Full
Nov 19
Last Quarter

Hourly Weather History & Observations

Time (CDT) Temp. Windchill Dew Point Humidity Pressure Visibility Wind Dir Wind Speed Gust Speed Precip Events Conditions
12:52 AM 43.0 °F 40.3 °F 35.1 °F 74% 30.17 in 10.0 mi NE 4.6 mph - N/A   Clear
1:52 AM 43.0 °F 40.3 °F 36.0 °F 76% 30.13 in 10.0 mi NE 4.6 mph - N/A   Clear
2:52 AM 43.0 °F 38.8 °F 36.0 °F 76% 30.10 in 10.0 mi ENE 6.9 mph - N/A   Clear
3:52 AM 43.0 °F 38.8 °F 36.0 °F 76% 30.06 in 10.0 mi NE 6.9 mph - N/A   Clear
4:52 AM 43.0 °F 40.3 °F 36.0 °F 76% 30.06 in 10.0 mi NE 4.6 mph - N/A   Clear
5:52 AM 43.0 °F 38.8 °F 37.0 °F 80% 30.02 in 10.0 mi ENE 6.9 mph - N/A   Clear
6:52 AM 45.0 °F 42.6 °F 37.0 °F 74% 30.00 in 10.0 mi ENE 4.6 mph - N/A   Scattered Clouds
7:52 AM 45.0 °F 41.2 °F 39.0 °F 80% 29.96 in 8.0 mi NNE 6.9 mph - N/A   Mostly Cloudy
8:52 AM 46.0 °F 41.4 °F 41.0 °F 83% 29.92 in 6.0 mi NNE 9.2 mph - 0.01 in Rain Light Rain
9:52 AM 46.9 °F - 43.0 °F 86% 29.90 in 4.0 mi ENE 10.4 mph - 0.01 in Rain Light Rain
10:33 AM 46.9 °F - 44.1 °F 90% 29.86 in 2.5 mi NE 10.4 mph - 0.03 in Rain Rain
10:52 AM 46.9 °F - 44.1 °F 90% 29.85 in 2.5 mi NE 10.4 mph - 0.05 in Rain Light Rain
11:37 AM 46.9 °F - 45.0 °F 93% 29.84 in 1.8 mi NE 11.5 mph - 0.07 in Rain Rain
11:52 AM 46.9 °F - 45.0 °F 93% 29.82 in 1.8 mi NE 12.7 mph - 0.12 in Rain Rain
12:17 PM 46.9 °F - 46.0 °F 97% 29.77 in 1.8 mi NNE 12.7 mph - 0.07 in Rain Rain
12:52 PM 46.9 °F - 46.0 °F 97% 29.70 in 2.0 mi North 18.4 mph - 0.14 in Rain Rain
1:52 PM 48.9 °F - 46.9 °F 93% 29.66 in 2.0 mi NNE 16.1 mph 21.9 mph 0.08 in Rain Heavy Rain
2:10 PM 48.0 °F - 46.0 °F 93% 29.64 in 1.8 mi NNE 16.1 mph - 0.08 in Rain Heavy Rain
2:49 PM 48.2 °F - 46.4 °F 93% 29.59 in 2.0 mi NNE 16.1 mph - 0.28 in Rain Heavy Rain
2:52 PM 48.0 °F - 46.0 °F 93% 29.60 in 2.0 mi NNE 15.0 mph 24.2 mph 0.29 in Rain Heavy Rain
3:52 PM 48.0 °F - 46.0 °F 93% 29.58 in 1.2 mi North 11.5 mph - 0.20 in Rain Heavy Rain
4:29 PM 48.0 °F - 46.0 °F 93% 29.53 in 5.0 mi North 17.3 mph 24.2 mph 0.19 in Rain Light Rain
4:52 PM 48.0 °F - 45.0 °F 89% 29.53 in 7.0 mi North 17.3 mph - 0.20 in Rain Light Rain
5:06 PM 48.0 °F - 45.0 °F 89% 29.50 in 1.8 mi North 19.6 mph 26.5 mph 0.03 in Rain Heavy Rain
5:30 PM 48.0 °F - 45.0 °F 89% 29.48 in 2.5 mi NNW 18.4 mph 29.9 mph 0.08 in Rain Light Rain
5:45 PM 46.9 °F - 45.0 °F 93% 29.49 in 3.0 mi North 16.1 mph 26.5 mph 0.09 in Rain Light Rain
5:52 PM 46.9 °F - 45.0 °F 93% 29.49 in 2.0 mi North 18.4 mph 26.5 mph 0.11 in Rain Heavy Rain
6:10 PM 48.0 °F - 45.0 °F 89% 29.49 in 3.0 mi NNW 17.3 mph 27.6 mph 0.05 in Rain Rain
6:52 PM 46.9 °F - 45.0 °F 93% 29.47 in 4.0 mi NW 18.4 mph 34.5 mph 0.14 in Rain Rain
7:43 PM 46.9 °F - 45.0 °F 93% 29.56 in 1.8 mi West 16.1 mph 25.3 mph 0.08 in Rain Heavy Rain
7:52 PM 46.9 °F - 45.0 °F 93% 29.57 in 1.5 mi West 15.0 mph 24.2 mph 0.15 in Rain Heavy Rain
8:15 PM 46.9 °F - 45.0 °F 93% 29.58 in 2.0 mi WNW 15.0 mph 24.2 mph 0.17 in Rain Heavy Rain
8:37 PM 46.9 °F - 44.1 °F 90% 29.58 in 3.0 mi NW 18.4 mph 26.5 mph 0.29 in Rain Heavy Rain
8:52 PM 46.9 °F - 44.1 °F 90% 29.58 in 4.0 mi NW 18.4 mph 27.6 mph 0.34 in Rain Heavy Rain
9:09 PM 46.9 °F - 44.1 °F 90% 29.58 in 4.0 mi WNW 19.6 mph 27.6 mph 0.06 in Rain Rain
9:52 PM 46.0 °F 38.8 °F 44.1 °F 93% 29.62 in 6.0 mi WNW 18.4 mph 27.6 mph 0.13 in Rain Rain
10:52 PM 46.9 °F - 45.0 °F 93% 29.66 in 7.0 mi West 15.0 mph 25.3 mph 0.03 in Rain Light Rain
11:52 PM 46.9 °F - 45.0 °F 93% 29.70 in 5.0 mi West 13.8 mph - 0.00 in   Overcast